Time,TemperatureF,DewpointF,PressureIn,WindDirection,WindDirectionDegrees,WindSpeedMPH,WindSpeedGustMPH,Humidity,HourlyPrecipIn,Conditions,Clouds,dailyrainin,SoftwareType,DateUTC
2013-03-31 00:10:00,42.4,35.0,29.96,ESE,108,0.0,-999.0,76,-99.99,,,0.00,weatherlink.com 1.10,2013-03-31 04:10:00,
2013-03-31 00:25:00,42.3,36.0,29.95,ESE,121,1.0,-999.0,77,-99.99,,,0.00,weatherlink.com 1.10,2013-03-31 04:25:00,
2013-03-31 00:40:00,42.2,36.0,29.95,ESE,118,2.0,-999.0,78,-99.99,,,0.00,weatherlink.com 1.10,2013-03-31 04:40:00,
2013-03-31 00:55:00,41.8,36.0,29.94,ESE,114,1.0,-999.0,79,-99.99,,,0.00,weatherlink.com 1.10,2013-03-31 04:55:00,
2013-03-31 01:10:00,41.6,36.0,29.93,ESE,112,0.0,-999.0,80,-99.99,,,0.00,weatherlink.com 1.10,2013-03-31 05:10:00,
2013-03-31 01:25:00,41.4,36.0,29.92,ESE,114,0.0,-999.0,80,-99.99,,,0.00,weatherlink.com 1.10,2013-03-31 05:25:00,
2013-03-31 01:40:00,40.9,35.0,29.92,ESE,117,0.0,-999.0,80,-99.99,,,0.00,weatherlink.com 1.10,2013-03-31 05:40:00,
2013-03-31 01:55:00,40.3,35.0,29.91,ESE,117,0.0,-999.0,81,-99.99,,,0.00,weatherlink.com 1.10,2013-03-31 05:55:00,
2013-03-31 02:10:00,40.7,35.0,29.90,ESE,117,0.0,-999.0,80,-99.99,,,0.00,weatherlink.com 1.10,2013-03-31 06:10:00,
2013-03-31 02:25:00,40.6,35.0,29.89,ESE,117,0.0,-999.0,81,-99.99,,,0.00,weatherlink.com 1.10,2013-03-31 06:25:00,
2013-03-31 02:40:00,41.3,35.0,29.89,ESE,115,0.0,-999.0,78,-99.99,,,0.00,weatherlink.com 1.10,2013-03-31 06:40:00,
2013-03-31 02:55:00,41.0,35.0,29.88,ESE,116,0.0,-999.0,78,-99.99,,,0.00,weatherlink.com 1.10,2013-03-31 06:55:00,
2013-03-31 03:10:00,41.0,34.0,29.87,ESE,115,0.0,-999.0,77,-99.99,,,0.00,weatherlink.com 1.10,2013-03-31 07:10:00,
2013-03-31 03:26:00,41.1,34.0,29.86,SSE,148,0.0,-999.0,76,-99.99,,,0.00,weatherlink.com 1.10,2013-03-31 07:26:00,
2013-03-31 03:40:00,41.2,34.0,29.85,SSE,162,0.0,-999.0,75,-99.99,,,0.00,weatherlink.com 1.10,2013-03-31 07:40:00,
2013-03-31 03:55:00,41.7,34.0,29.85,SE,142,0.0,-999.0,73,-99.99,,,0.00,weatherlink.com 1.10,2013-03-31 07:55:00,
2013-03-31 04:10:00,42.7,33.0,29.84,SSE,152,0.0,-999.0,69,-99.99,,,0.00,weatherlink.com 1.10,2013-03-31 08:10:00,
2013-03-31 04:25:00,43.2,33.0,29.83,South,181,2.0,-999.0,67,-99.99,,,0.00,weatherlink.com 1.10,2013-03-31 08:25:00,
2013-03-31 04:40:00,43.2,32.0,29.82,SSE,151,0.0,-999.0,66,-99.99,,,0.00,weatherlink.com 1.10,2013-03-31 08:40:00,
2013-03-31 04:55:00,43.1,32.0,29.82,South,191,2.0,-999.0,66,-99.99,,,0.00,weatherlink.com 1.10,2013-03-31 08:55:00,
2013-03-31 05:10:00,43.2,32.0,29.81,SSE,156,0.0,-999.0,66,-99.99,,,0.00,weatherlink.com 1.10,2013-03-31 09:10:00,
2013-03-31 05:25:00,43.0,32.0,29.81,SSE,167,2.0,-999.0,66,-99.99,,,0.00,weatherlink.com 1.10,2013-03-31 09:25:00,
2013-03-31 05:40:00,43.4,33.0,29.80,South,187,3.0,-999.0,66,-99.99,,,0.00,weatherlink.com 1.10,2013-03-31 09:40:00,
2013-03-31 05:55:00,44.1,33.0,29.80,South,172,3.0,-999.0,65,-99.99,,,0.00,weatherlink.com 1.10,2013-03-31 09:55:00,
2013-03-31 06:10:00,44.3,34.0,29.79,South,170,1.0,-999.0,66,-99.99,,,0.00,weatherlink.com 1.10,2013-03-31 10:10:00,
2013-03-31 06:25:00,44.4,33.0,29.79,South,176,3.0,-999.0,65,-99.99,,,0.00,weatherlink.com 1.10,2013-03-31 10:25:00,
2013-03-31 06:40:00,-999.0,-99.9,29.78,North,-999,-999.0,-999.0,-999,-99.99,,,0.00,weatherlink.com 1.10,2013-03-31 10:40:00,
2013-03-31 06:55:00,-999.0,-99.9,29.78,North,-999,-999.0,-999.0,-999,-99.99,,,0.00,weatherlink.com 1.10,2013-03-31 10:55:00,
2013-03-31 07:10:00,-999.0,-99.9,29.78,North,-999,-999.0,-999.0,-999,-99.99,,,0.00,weatherlink.com 1.10,2013-03-31 11:10:00,
2013-03-31 07:25:00,-999.0,-99.9,29.77,North,-999,-999.0,-999.0,-999,-99.99,,,0.00,weatherlink.com 1.10,2013-03-31 11:25:00,
2013-03-31 07:40:00,-999.0,-99.9,29.77,North,-999,-999.0,-999.0,-999,-99.99,,,0.00,weatherlink.com 1.10,2013-03-31 11:40:00,
2013-03-31 07:55:00,-999.0,-99.9,29.78,North,-999,-999.0,-999.0,-999,-99.99,,,0.00,weatherlink.com 1.10,2013-03-31 11:55:00,
2013-03-31 08:10:00,-999.0,-99.9,29.77,North,-999,-999.0,-999.0,-999,-99.99,,,0.00,weatherlink.com 1.10,2013-03-31 12:10:00,
2013-03-31 08:25:00,-999.0,-99.9,29.77,North,-999,-999.0,-999.0,-999,-99.99,,,0.00,weatherlink.com 1.10,2013-03-31 12:25:00,
2013-03-31 08:40:00,45.0,37.0,29.76,SSW,207,2.0,-999.0,73,-99.99,,,0.00,weatherlink.com 1.10,2013-03-31 12:40:00,
2013-03-31 08:55:00,45.6,37.0,29.76,South,191,3.0,-999.0,72,-99.99,,,0.00,weatherlink.com 1.10,2013-03-31 12:55:00,
2013-03-31 09:10:00,46.4,38.0,29.76,SSW,204,2.0,-999.0,72,-99.99,,,0.00,weatherlink.com 1.10,2013-03-31 13:10:00,
2013-03-31 09:25:00,46.9,38.0,29.76,SSW,207,2.0,-999.0,71,-99.99,,,0.00,weatherlink.com 1.10,2013-03-31 13:25:00,
2013-03-31 09:40:00,46.9,39.0,29.75,SSW,212,2.0,-999.0,73,-99.99,,,0.00,weatherlink.com 1.10,2013-03-31 13:40:00,
2013-03-31 09:55:00,47.1,39.0,29.75,SSW,203,0.0,-999.0,74,-99.99,,,0.00,weatherlink.com 1.10,2013-03-31 13:55:00,
2013-03-31 10:10:00,47.6,40.0,29.74,SW,226,0.0,-999.0,76,-99.99,,,0.00,weatherlink.com 1.10,2013-03-31 14:10:00,
2013-03-31 10:25:00,47.5,41.0,29.74,NW,304,1.0,-999.0,79,-99.99,,,0.00,weatherlink.com 1.10,2013-03-31 14:25:00,
2013-03-31 10:40:00,46.0,42.0,29.74,West,263,1.0,-999.0,85,-99.99,,,0.00,weatherlink.com 1.10,2013-03-31 14:40:00,
2013-03-31 10:55:00,45.0,43.0,29.74,SSW,193,2.0,-999.0,94,-99.99,,,0.01,weatherlink.com 1.10,2013-03-31 14:55:00,
2013-03-31 11:10:00,45.4,44.0,29.74,West,265,1.0,-999.0,95,-99.99,,,0.01,weatherlink.com 1.10,2013-03-31 15:10:00,
2013-03-31 11:25:00,46.0,45.0,29.74,SW,215,6.0,-999.0,96,-99.99,,,0.01,weatherlink.com 1.10,2013-03-31 15:25:00,
2013-03-31 11:40:00,47.0,46.0,29.74,WNW,286,1.0,-999.0,96,-99.99,,,0.01,weatherlink.com 1.10,2013-03-31 15:40:00,
2013-03-31 11:55:00,48.4,47.0,29.74,NNW,345,1.0,-999.0,96,-99.99,,,0.01,weatherlink.com 1.10,2013-03-31 15:55:00,
2013-03-31 12:10:00,48.3,47.0,29.74,West,262,1.0,-999.0,95,-99.99,,,0.01,weatherlink.com 1.10,2013-03-31 16:10:00,
2013-03-31 12:25:00,49.0,47.0,29.73,WNW,285,3.0,-999.0,93,-99.99,,,0.01,weatherlink.com 1.10,2013-03-31 16:25:00,
2013-03-31 12:40:00,49.7,46.0,29.73,WNW,291,6.0,-999.0,88,-99.99,,,0.01,weatherlink.com 1.10,2013-03-31 16:40:00,
2013-03-31 12:55:00,50.0,45.0,29.73,NNW,340,1.0,-999.0,84,-99.99,,,0.01,weatherlink.com 1.10,2013-03-31 16:55:00,
2013-03-31 13:10:00,50.8,45.0,29.73,SW,218,6.0,-999.0,81,-99.99,,,0.01,weatherlink.com 1.10,2013-03-31 17:10:00,
2013-03-31 13:25:00,53.1,46.0,29.72,WNW,285,5.0,-999.0,77,-99.99,,,0.01,weatherlink.com 1.10,2013-03-31 17:25:00,
2013-03-31 13:40:00,53.0,45.0,29.71,SE,129,6.0,-999.0,74,-99.99,,,0.01,weatherlink.com 1.10,2013-03-31 17:40:00,
2013-03-31 13:55:00,54.7,45.0,29.71,WNW,283,6.0,-999.0,71,-99.99,,,0.01,weatherlink.com 1.10,2013-03-31 17:55:00,
2013-03-31 14:10:00,55.9,44.0,29.70,WNW,293,6.0,-999.0,64,-99.99,,,0.01,weatherlink.com 1.10,2013-03-31 18:10:00,
2013-03-31 14:25:00,56.7,43.0,29.69,WNW,284,10.0,-999.0,61,-99.99,,,0.01,weatherlink.com 1.10,2013-03-31 18:25:00,
2013-03-31 14:40:00,56.3,44.0,29.69,SW,217,4.0,-999.0,63,-99.99,,,0.01,weatherlink.com 1.10,2013-03-31 18:40:00,
2013-03-31 14:55:00,57.6,43.0,29.68,NE,49,3.0,-999.0,58,-99.99,,,0.01,weatherlink.com 1.10,2013-03-31 18:55:00,
2013-03-31 15:10:00,59.0,43.0,29.67,SW,233,5.0,-999.0,55,-99.99,,,0.01,weatherlink.com 1.10,2013-03-31 19:10:00,
2013-03-31 15:25:00,59.0,42.0,29.67,NW,307,1.0,-999.0,53,-99.99,,,0.01,weatherlink.com 1.10,2013-03-31 19:25:00,
2013-03-31 15:40:00,60.3,40.0,29.66,West,259,3.0,-999.0,48,-99.99,,,0.01,weatherlink.com 1.10,2013-03-31 19:40:00,
2013-03-31 15:55:00,60.7,39.0,29.66,NW,307,9.0,-999.0,45,-99.99,,,0.01,weatherlink.com 1.10,2013-03-31 19:55:00,
2013-03-31 16:10:00,61.0,39.0,29.66,NW,305,9.0,-999.0,44,-99.99,,,0.01,weatherlink.com 1.10,2013-03-31 20:10:00,
2013-03-31 16:25:00,60.4,36.0,29.66,West,281,6.0,-999.0,41,-99.99,,,0.01,weatherlink.com 1.10,2013-03-31 20:25:00,
2013-03-31 16:40:00,59.9,37.0,29.65,WNW,293,6.0,-999.0,42,-99.99,,,0.01,weatherlink.com 1.10,2013-03-31 20:40:00,
2013-03-31 16:55:00,59.7,36.0,29.65,WNW,297,7.0,-999.0,42,-99.99,,,0.01,weatherlink.com 1.10,2013-03-31 20:55:00,
2013-03-31 17:10:00,60.6,36.0,29.64,WNW,301,10.0,-999.0,40,-99.99,,,0.01,weatherlink.com 1.10,2013-03-31 21:10:00,
2013-03-31 17:25:00,60.3,36.0,29.64,WNW,301,12.0,-999.0,40,-99.99,,,0.01,weatherlink.com 1.10,2013-03-31 21:25:00,
2013-03-31 17:40:00,59.4,35.0,29.64,West,261,8.0,-999.0,40,-99.99,,,0.01,weatherlink.com 1.10,2013-03-31 21:40:00,
2013-03-31 17:55:00,60.2,35.0,29.64,WNW,283,5.0,-999.0,39,-99.99,,,0.01,weatherlink.com 1.10,2013-03-31 21:55:00,
2013-03-31 18:10:00,59.3,34.0,29.64,West,269,4.0,-999.0,39,-99.99,,,0.01,weatherlink.com 1.10,2013-03-31 22:10:00,
2013-03-31 18:25:00,59.1,35.0,29.64,WNW,288,7.0,-999.0,40,-99.99,,,0.01,weatherlink.com 1.10,2013-03-31 22:25:00,
2013-03-31 18:40:00,58.5,34.0,29.64,WNW,285,4.0,-999.0,40,-99.99,,,0.01,weatherlink.com 1.10,2013-03-31 22:40:00,
2013-03-31 18:55:00,58.3,33.0,29.64,West,262,5.0,-999.0,39,-99.99,,,0.01,weatherlink.com 1.10,2013-03-31 22:55:00,
2013-03-31 19:10:00,58.4,34.0,29.65,NW,320,3.0,-999.0,40,-99.99,,,0.01,weatherlink.com 1.10,2013-03-31 23:10:00,
2013-03-31 19:25:00,57.5,35.0,29.65,WNW,283,3.0,-999.0,43,-99.99,,,0.01,weatherlink.com 1.10,2013-03-31 23:25:00,
2013-03-31 19:40:00,57.3,34.0,29.65,WNW,283,2.0,-999.0,42,-99.99,,,0.01,weatherlink.com 1.10,2013-03-31 23:40:00,
2013-03-31 19:55:00,55.9,33.0,29.65,West,270,7.0,-999.0,43,-99.99,,,0.01,weatherlink.com 1.10,2013-03-31 23:55:00,
2013-03-31 20:10:00,54.8,34.0,29.66,WNW,298,9.0,-999.0,46,-99.99,,,0.01,weatherlink.com 1.10,2013-04-01 00:10:00,
2013-03-31 20:25:00,54.3,35.0,29.66,WNW,292,7.0,-999.0,48,-99.99,,,0.01,weatherlink.com 1.10,2013-04-01 00:25:00,
2013-03-31 20:40:00,53.8,36.0,29.66,NW,311,9.0,-999.0,52,-99.99,,,0.01,weatherlink.com 1.10,2013-04-01 00:40:00,
2013-03-31 20:55:00,52.6,38.0,29.67,WNW,288,6.0,-999.0,58,-99.99,,,0.01,weatherlink.com 1.10,2013-04-01 00:55:00,
2013-03-31 21:10:00,52.0,38.0,29.67,NW,321,8.0,-999.0,60,-99.99,,,0.01,weatherlink.com 1.10,2013-04-01 01:10:00,
2013-03-31 21:25:00,51.6,38.0,29.67,West,278,6.0,-999.0,61,-99.99,,,0.01,weatherlink.com 1.10,2013-04-01 01:25:00,
2013-03-31 21:40:00,51.1,38.0,29.67,West,270,2.0,-999.0,62,-99.99,,,0.01,weatherlink.com 1.10,2013-04-01 01:40:00,
2013-03-31 21:55:00,50.8,38.0,29.67,West,280,1.0,-999.0,62,-99.99,,,0.01,weatherlink.com 1.10,2013-04-01 01:55:00,
2013-03-31 22:10:00,50.5,38.0,29.67,WNW,288,0.0,-999.0,63,-99.99,,,0.01,weatherlink.com 1.10,2013-04-01 02:10:00,
2013-03-31 22:25:00,49.7,38.0,29.68,WNW,285,3.0,-999.0,65,-99.99,,,0.01,weatherlink.com 1.10,2013-04-01 02:25:00,
2013-03-31 22:40:00,49.9,39.0,29.68,WNW,298,3.0,-999.0,66,-99.99,,,0.01,weatherlink.com 1.10,2013-04-01 02:40:00,
2013-03-31 22:55:00,49.3,39.0,29.68,WNW,284,4.0,-999.0,67,-99.99,,,0.01,weatherlink.com 1.10,2013-04-01 02:55:00,
2013-03-31 23:10:00,48.5,38.0,29.68,West,278,4.0,-999.0,68,-99.99,,,0.01,weatherlink.com 1.10,2013-04-01 03:10:00,
2013-03-31 23:25:00,49.0,38.0,29.70,WNW,287,10.0,-999.0,65,-99.99,,,0.01,weatherlink.com 1.10,2013-04-01 03:25:00,
2013-03-31 23:40:00,47.8,36.0,29.70,NW,307,17.0,-999.0,64,-99.99,,,0.01,weatherlink.com 1.10,2013-04-01 03:40:00,
2013-03-31 23:55:00,46.9,34.0,29.71,WNW,299,10.0,-999.0,62,-99.99,,,0.01,weatherlink.com 1.10,2013-04-01 03:55:00,